Weather in Luhanske

Ukraine / Donetsk Region     47°53′10″N   37°40′40″E
temp.,
°C
wind,
m/s
gust,
m/s
humid.,
%
clouds,
%
prec.,
mm/h
press.,
hPa
HPBL,
m
14 june, mon
mon1400:00+17s237989 0.0 101176
03:00+16sse23855 0.0 101165
06:00+17se23835 0.0 1012116
09:00+22se3465100 0.0 1012731
12:00+25sse3449100 0.0 10121662
15:00+27sse32392 0.0 10122270
18:00+26se224020 0.0 10121988
21:00+22e225615 0.0 101225
15 june, tue
tue1500:00+21ne2462100 0.0 1012128
03:00+20ne2568100 0.0 1011151
06:00+20ne3771100 0.0 1011210
09:00+23ene356064 0.0 1011482
12:00+27ese334099 0.1 10102398
15:00+26ese234397 0.1 10091564
18:00+24s2371100 1.2 1009369
21:00+21s117991 2.6 101018
16 june, wed
wed1600:00+19sse11850 0.1 101017
03:00+17w11926 1.1 101013
06:00+19nne118918 0.0 101153
09:00+22s2275100 0.6 1011431
12:00+24ene2462100 0.6 1011828
15:00+28e4546100 0.6 10101743
18:00+24ese2568100 1.4 1010127
21:00+22ene278399 4.9 1010175
17 june, thu
thu1700:00+20n5993100 11.4 1011294
03:00+19nne61492100 12.9 1012454
06:00+20e61577100 0.1 1012628
09:00+22ene41276100 1.0 1014628
12:00+23e5978100 1.0 1015642
15:00+23se3583100 5.4 1016573
18:00+19sw1297100 11.1 1017109
21:00+19ne229591 15.8 101951
18 june, fri
fri1800:00+19ene31196100 2.9 1019509
03:00+17ene4119480 4.6 1020431
06:00+17ene51290100 0.7 1021505
09:00+18ene41078100 0.9 1022558
12:00+21e5861100 0.0 10221058
15:00+24e575199 0.0 10221591
18:00+23ene5854100 0.0 10221299
21:00+20ene5116298 0.0 1023601